Regional Weather Roundup
Issued by NWS

Home | Current Version | Previous Version | Graphics & Text | Print | Product List | Glossary Off
Versions: 1 2 3 4 5 6 7 8 9 10 11 12 13 14 15 16 17 18 19 20 21 22 23 24 25 26 27 28 29 30 31 32 33 34 35 36 37 38 39 40 41 42 43 44 45 46 47 48 49 50

000
ASUS43 KMKX 182110
RWRWI

WISCONSIN REGIONAL WEATHER ROUNDUP
NATIONAL WEATHER SERVICE MILWAUKEE/SULLIVAN WI
300 PM CST SUN FEB 18 2018

NOTE: "FAIR" INDICATES FEW OR NO CLOUDS BELOW 12,000 FEET WITH NO
SIGNIFICANT WEATHER AND/OR OBSTRUCTIONS TO VISIBILITY.

WIZ001-002-006>008-014>016-023>028-182200-
NORTHWEST WISCONSIN

CITY           SKY/WX    TMP DP  RH WIND       PRES   REMARKS
SUPERIOR ARPT  CLOUDY    24  20  85 E15       29.71F WCI  11
ASHLAND        CLOUDY    24  16  71 NE12      29.71F WCI  13
HAYWARD        CLOUDY    35  24  64 S13       29.65F WCI  26
SIREN          CLOUDY    37  26  63 S8        29.62F WCI  31
CUMBERLAND     FAIR      36  27  69 S17       29.64F WCI  25
RICE LAKE      FAIR      38  27  63 S15       29.67F WCI  29
CHETEK         FAIR      38  27  64 S9G20     29.68F WCI  31
LADYSMITH      FAIR      39  26  58 S22G31    29.71S WCI  29
EAU CLAIRE     FAIR      38  26  62 S18G25    29.70R WCI  28
MENOMONIE      FAIR      41  26  54 S13G20    29.69S
NEW RICHMOND   FAIR      40  26  56 S18G24    29.64S WCI  31
OSCEOLA        FAIR      41  28  59 S20G25    29.65F
$$

WIZ003>005-009-010-017-018-182200-
NORTH CENTRAL WISCONSIN

CITY           SKY/WX    TMP DP  RH WIND       PRES   REMARKS
MANITOWISH WTR PTSUNNY   29  19  65 S14G28    29.70R WCI  19
ARBOR VITAE    CLOUDY    32  21  65 S20G32    29.70F WCI  20
WOODRUFF       CLOUDY    32  21  65 S20G32    29.70F WCI  20
RHINELANDER    CLOUDY    30  20  66 S15G24    29.74F WCI  19
EAGLE RIVER    FAIR      30  17  58 S12G23    29.75F WCI  20
LAND O LAKES   PTSUNNY   30  17  58 S16G28    29.74F WCI  18
PHILLIPS       CLOUDY    32  22  67 S20G26    29.69S WCI  20
TOMAHAWK       CLOUDY    32  21  63 S5        29.74F WCI  27
MEDFORD        FAIR      33  25  71 S24G31    29.72F WCI  20
MERRILL        FAIR      35  23  61 S14G23    29.79F WCI  26
$$

WIZ029-030-035-036-043>047-182200-
CENTRAL WISCONSIN

CITY           SKY/WX    TMP DP  RH WIND       PRES   REMARKS
WAUSAU         PTSUNNY   35  23  61 S22G32    29.78F WCI  23
MOSINEE        PTSUNNY   36  25  64 S25G31    29.81F WCI  23
MARSHFIELD     FAIR      35  25  66 S23G33    29.77F WCI  23
STEVENS POINT  CLOUDY    34  23  63 S16G25    29.86S WCI  24
WAUPACA        CLOUDY    36  24  61 SE16G23   29.92F WCI  26
WAUTOMA        NOT AVBL
WISC RAPIDS    CLOUDY    37  22  54 S15G22    29.84F WCI  28
CAMP DOUGLAS   CLOUDY    37  25  60 SE14G21   29.82F WCI  29
$$

WIZ011>013-019>022-031-037>040-048>050-182200-
NORTHEAST WISCONSIN

CITY           SKY/WX    TMP DP  RH WIND       PRES   REMARKS
ANTIGO         FAIR      30  23  74 S22G33    29.81F WCI  17
SHAWANO        PTSUNNY   37  24  58 S10G20    29.89F WCI  30
OCONTO         CLOUDY    33  25  72 S13G22    29.96F WCI  24
STURGEON BAY   PTSUNNY   32  26  78 S22G32    29.99F WCI  19
GREEN BAY      PTSUNNY   36  25  64 SE15      29.96F WCI  27
MANITOWOC      FAIR      33  28  81 S25       30.03F WCI  20
APPLETON       PTSUNNY   36  19  51 S22       29.94F WCI  24
CLINTONVILLE   CLOUDY    35  23  62 S18G28    29.89F WCI  24
OSHKOSH        CLOUDY    36  23  59 S18G31    29.93F WCI  26
$$

WIZ032>034-041-042-053>061-182200-
SOUTHWEST WISCONSIN

CITY           SKY/WX    TMP DP  RH WIND       PRES   REMARKS
LA CROSSE      FAIR      40  27  59 S23G31    29.75F WCI  30
SPARTA         FAIR      39  27  62 S16G23    29.79F WCI  30
VIROQUA        FAIR      36  29  76 S21G30    29.78F WCI  25
BOSCOBEL       CLOUDY    41  26  55 VRB6G21   29.86F
PRAIRIE DU CHI CLOUDY    40  25  55 SE12G20   29.82F WCI  33
PLATTEVILLE    FAIR      37  30  77 SE17      29.88F WCI  27
$$

WIZ056-057-062-063-064-067-068-182200-
SOUTH CENTRAL WISCONSIN

CITY           SKY/WX    TMP DP  RH WIND       PRES   REMARKS
REEDSBURG      CLOUDY    36  25  64 S12G17    29.87F WCI  28
BARABOO/DELLS  CLOUDY    34  25  68 S21G28    29.88F WCI  23
LONE ROCK      CLOUDY    38  27  64 S22G29    29.89F WCI  27
MINERAL POINT  FAIR      36  32  87 SE23G29   29.87F WCI  24
MADISON        PTSUNNY   36  25  64 S18G28    29.95F WCI  26
MIDDLETON      FAIR      38  27  63 S25       29.93F WCI  27
WATERTOWN      FAIR      37  25  62 S20       29.98F WCI  26
MONROE         FAIR      32  28  86 SE17      29.95F WCI  21
JANESVILLE     PTSUNNY   36  27  69 S22G28    30.00F WCI  24
$$

WIZ051-052-058>065-066-070>072-182200-
SOUTHEAST WISCONSIN

CITY           SKY/WX    TMP DP  RH WIND       PRES   REMARKS
MILWAUKEE      PTSUNNY   36  27  69 SE15G25   30.04F WCI  27
WAUKESHA       SUNNY     36  21  55 S14G25    30.02F WCI  27
MILWAUKEE/TIMM SUNNY     37  21  52 S14       30.03F WCI  29
RACINE         FAIR      32  27  81 S21G29    30.08F WCI  20
BURLINGTON     FAIR      36  24  61 S10G16    30.02F WCI  29
KENOSHA        FAIR      35  26  69 SE17      30.05F WCI  25
FOND DU LAC    PTSUNNY   37  22  54 S22G28    29.95F WCI  26
SHEBOYGAN      FAIR      33  28  81 S16G26    30.03F WCI  23
WEST BEND      FAIR      36  23  60 S10G17    30.00F WCI  28
JUNEAU         FAIR      34  24  66 SE14G23   29.97F WCI  25
$$

LSZ147-162-182200-
LAKE SUPERIOR

STATION/POSITION TIME  TEMP    WIND        PRES    WAVE
                       AIR SEA DIR/SP/G            HT/PER
                 (UTC) (F)     (DEG/KT/KT) (MB)    (FT/S)
DEVILS ISLAND    2100   23      60/ 25/ 28 1008.6F
SAXON HARBOR     2040   33     190/  3/  8 1006.1F
$$

LMZ867-665-643>646-182200-
LAKE MICHIGAN

STATION/POSITION TIME  TEMP    WIND        PRES    WAVE
                       AIR SEA DIR/SP/G            HT/PER
                 (UTC) (F)     (DEG/KT/KT) (MB)    (FT/S)
NORTHPORT PIER   2040   33                 1016.6F
KEWAUNEE LAKESHO 2042   32     170/ 26/ 30 1016.2F
SHEBOYGAN LAKESH 2100   32     170/ 26/ 30 1017.3F
PORT WASHINGTON  2030   33     160/ 15/ 24 1018.6F
MILWAUKEE LAKESH 2050   31     150/ 25/ 27   N/A
KENOSHA   LAKESH 2100   32     160/ 23/ 26 1017.9
$$

TC  - TEMPERATURE IN CELSIUS
VSB - VISIBILITY IN STATUTE MILES
WCI - WIND CHILL INDEX
HX  - HEAT INDEX





USA.gov is the U.S. government's official web portal to all federal, state and local government web resources and services.